| time (UTC) | temp F | wind direction | speed MPH | gust MPH | rain 1hr in | rain 24hr in | rain mn in | humidity % | barometer mb |
| 20260507120057 | 69 | 146 | 2.0 | 10.0 | 0.00 | 0.81 | 0.00 | 63 | 1013.5 |
| 20260507114607 | 70 | 240 | 2.0 | 9.0 | 0.00 | 0.81 | 0.00 | 60 | 1013.6 |
| 20260507113124 | 68 | 144 | 2.0 | 6.0 | 0.00 | 0.81 | 0.00 | 64 | 1013.8 |
| 20260507111559 | 68 | 228 | 2.0 | 5.0 | 0.00 | 0.81 | 0.00 | 61 | 1013.9 |
| 20260507110056 | 68 | 183 | 1.0 | 9.0 | 0.00 | 0.81 | 0.00 | 62 | 1014.0 |
| 20260507104556 | 67 | 166 | 1.0 | 6.0 | 0.00 | 0.81 | 0.00 | 64 | 1014.2 |
| 20260507103056 | 66 | 182 | 2.0 | 9.0 | 0.00 | 0.81 | 0.00 | 67 | 1014.3 |
| 20260507101557 | 66 | 209 | 3.0 | 9.0 | 0.00 | 0.81 | 0.00 | 68 | 1014.5 |
| 20260507100106 | 65 | 208 | 3.0 | 6.0 | 0.00 | 0.81 | 0.00 | 65 | 1014.4 |
| 20260507094602 | 64 | 175 | 0.0 | 6.0 | 0.00 | 0.81 | 0.00 | 69 | 1014.4 |
| 20260507093055 | 63 | 252 | 2.0 | 7.0 | 0.00 | 0.81 | 0.00 | 69 | 1014.4 |
| 20260507091601 | 63 | 214 | 2.0 | 7.0 | 0.00 | 0.81 | 0.00 | 71 | 1014.5 |
| 20260507090053 | 62 | 205 | 2.0 | 5.0 | 0.00 | 0.81 | 0.00 | 72 | 1014.5 |
| 20260507084604 | 63 | 0 | 1.0 | 6.0 | 0.00 | 0.81 | 0.00 | 71 | 1014.6 |
| 20260507083053 | 61 | 268 | 1.0 | 7.0 | 0.00 | 0.81 | 0.00 | 73 | 1014.7 |
| 20260507081558 | 62 | 0 | 1.0 | 5.0 | 0.00 | 0.81 | 0.00 | 71 | 1014.8 |
| 20260507080055 | 60 | 241 | 1.0 | 3.0 | 0.00 | 0.81 | 0.00 | 74 | 1014.7 |
| 20260507074558 | 59 | 212 | 1.0 | 3.0 | 0.00 | 0.81 | 0.00 | 75 | 1014.6 |
| 20260507073057 | 59 | 0 | 0.0 | 2.0 | 0.00 | 0.81 | 0.00 | 76 | 1014.7 |
| 20260507071554 | 58 | 0 | 1.0 | 5.0 | 0.00 | 0.81 | 0.00 | 80 | 1014.7 |
| 20260507070104 | 57 | 58 | 0.0 | 6.0 | 0.00 | 0.81 | 0.00 | 80 | 1014.7 |
| 20260507064555 | 57 | 80 | 1.0 | 5.0 | 0.00 | 0.81 | 0.00 | 82 | 1014.5 |
| 20260507063056 | 0 | 0.0 | 0.0 | 0.00 | 0.81 | 0.00 | 1014.4 | ||
| 20260507061554 | 53 | 0 | 1.0 | 3.0 | 0.00 | 0.81 | 0.00 | 94 | 1014.2 |
| 20260507060105 | 52 | 0 | 0.0 | 3.0 | 0.00 | 0.81 | 0.00 | 96 | 1014.2 |
| 20260507054558 | 50 | 147 | 1.0 | 3.0 | 0.00 | 0.81 | 0.00 | 96 | 1014.0 |
| 20260507053059 | 49 | 0 | 0.0 | 2.0 | 0.00 | 0.81 | 0.00 | 95 | 1014.2 |
| 20260507051555 | 49 | 0 | 0.0 | 0.0 | 0.00 | 0.81 | 0.00 | 95 | 1014.2 |
| 20260507044610 | 48 | 0 | 0.0 | 1.0 | 0.00 | 0.81 | 0.00 | 95 | 1014.0 |
| 20260507043104 | 49 | 0 | 0.0 | 3.0 | 0.00 | 0.81 | 0.00 | 95 | 1013.9 |
| 20260507041601 | 49 | 0 | 0.0 | 0.0 | 0.00 | 0.81 | 0.00 | 94 | 1014.0 |
| 20260507040058 | 49 | 0 | 0.0 | 1.0 | 0.00 | 0.81 | 0.00 | 94 | 1013.9 |
| 20260507034555 | 49 | 0 | 0.0 | 1.0 | 0.00 | 0.81 | 0.00 | 94 | 1013.8 |
| 20260507033056 | 0 | 0.0 | 0.0 | 0.00 | 0.81 | 0.00 | 1013.8 | ||
| 20260507031554 | 0 | 0.0 | 0.0 | 0.00 | 0.81 | 0.00 | 1013.9 | ||
| 20260507030052 | 0 | 0.0 | 0.0 | 0.00 | 0.81 | 0.00 | 1013.7 | ||
| 20260507024556 | 0 | 0.0 | 0.0 | 0.00 | 0.81 | 0.00 | 1013.9 | ||
| 20260507023108 | 0 | 0.0 | 0.0 | 0.00 | 0.81 | 0.00 | 1014.0 | ||
| 20260507021554 | 0 | 0.0 | 0.0 | 0.00 | 0.81 | 0.00 | 1013.8 | ||
| 20260507014557 | 0 | 0.0 | 0.0 | 0.00 | 0.81 | 0.00 | 1013.8 | ||
| 20260507013051 | 0 | 0.0 | 0.0 | 0.00 | 0.81 | 0.00 | 1014.0 | ||
| 20260507011552 | 0 | 0.0 | 0.0 | 0.00 | 0.81 | 0.00 | 1014.2 | ||
| 20260507010054 | 53 | 51 | 2.0 | 3.0 | 0.00 | 0.81 | 0.00 | 95 | 1014.3 |
| 20260507004555 | 53 | 51 | 1.0 | 4.0 | 0.00 | 0.81 | 0.00 | 95 | 1014.4 |
| 20260507003114 | 53 | 57 | 1.0 | 2.0 | 0.00 | 0.81 | 0.00 | 95 | 1014.6 |
| 20260507001613 | 53 | 57 | 1.0 | 3.0 | 0.00 | 0.81 | 0.00 | 95 | 1014.6 |
| 20260507000056 | 53 | 63 | 0.0 | 2.0 | 0.00 | 0.80 | 0.00 | 95 | 1014.8 |
| 20260506234556 | 53 | 0 | 0.0 | 1.0 | 0.00 | 0.80 | 0.00 | 95 | 1014.8 |
| 20260506233055 | 53 | 0 | 0.0 | 0.0 | 0.00 | 0.80 | 0.00 | 95 | 1014.9 |
| 20260506231605 | 53 | 44 | 1.0 | 3.0 | 0.00 | 0.80 | 0.00 | 95 | 1014.9 |
| 20260506230115 | 53 | 0 | 1.0 | 3.0 | 0.00 | 0.80 | 0.00 | 95 | 1014.9 |
| 20260506224552 | 53 | 0 | 0.0 | 0.0 | 0.00 | 0.80 | 0.00 | 95 | 1015.0 |
| 20260506223100 | 53 | 0 | 0.0 | 0.0 | 0.00 | 0.80 | 0.00 | 95 | 1014.9 |
| 20260506221605 | 54 | 0 | 0.0 | 1.0 | 0.00 | 0.80 | 0.00 | 95 | 1014.8 |
| 20260506220058 | 53 | 0 | 0.0 | 3.0 | 0.00 | 0.80 | 0.00 | 95 | 1014.9 |
| 20260506214557 | 54 | 0 | 0.0 | 1.0 | 0.00 | 0.79 | 0.79 | 95 | 1014.9 |
| 20260506213102 | 54 | 0 | 0.0 | 1.0 | 0.00 | 0.79 | 0.79 | 95 | 1014.7 |
| 20260506211554 | 54 | 237 | 0.0 | 2.0 | 0.00 | 0.79 | 0.79 | 94 | 1014.6 |
| 20260506210058 | 54 | 0 | 0.0 | 1.0 | 0.00 | 0.79 | 0.79 | 94 | 1014.6 |
| 20260506204556 | 54 | 0 | 0.0 | 0.0 | 0.00 | 0.79 | 0.79 | 95 | 1014.6 |
| 20260506203116 | 54 | 0 | 0.0 | 2.0 | 0.00 | 0.79 | 0.79 | 94 | 1014.5 |
| 20260506201553 | 54 | 0 | 0.0 | 3.0 | 0.01 | 0.79 | 0.79 | 94 | 1014.4 |
| 20260506200058 | 54 | 0 | 0.0 | 3.0 | 0.02 | 0.79 | 0.79 | 94 | 1014.4 |
| 20260506194554 | 54 | 0 | 0.0 | 2.0 | 0.03 | 1.59 | 0.79 | 94 | 1014.1 |
| 20260506193101 | 54 | 0 | 0.0 | 3.0 | 0.07 | 1.58 | 0.78 | 94 | 1014.2 |
| 20260506191555 | 54 | 0 | 0.0 | 3.0 | 0.08 | 1.57 | 0.77 | 94 | 1014.1 |
| 20260506190058 | 54 | 81 | 1.0 | 3.0 | 0.11 | 1.56 | 0.77 | 94 | 1014.0 |
| 20260506184557 | 54 | 0 | 0.0 | 3.0 | 0.09 | 1.62 | 0.75 | 94 | 1013.9 |
| 20260506183105 | 54 | 0 | 0.0 | 1.0 | 0.04 | 1.57 | 0.70 | 94 | 1013.8 |
| 20260506181558 | 55 | 0 | 0.0 | 3.0 | 0.03 | 1.55 | 0.69 | 94 | 1013.8 |
| 20260506180053 | 55 | 0 | 0.0 | 0.0 | 0.07 | 1.52 | 0.66 | 94 | 1013.5 |
| 20260506174552 | 55 | 0 | 0.0 | 1.0 | 0.09 | 1.52 | 0.66 | 94 | 1013.1 |
| 20260506173109 | 55 | 0 | 0.0 | 2.0 | 0.09 | 1.52 | 0.66 | 93 | 1012.9 |
| 20260506171554 | 55 | 0 | 0.0 | 0.0 | 0.08 | 1.51 | 0.65 | 93 | 1012.9 |
| 20260506170107 | 56 | 0 | 0.0 | 4.0 | 0.01 | 1.44 | 0.58 | 93 | 1013.0 |
| 20260506164611 | 56 | 0 | 0.0 | 4.0 | 0.00 | 1.44 | 0.56 | 92 | 1012.7 |
| 20260506163101 | 56 | 0 | 2.0 | 8.0 | 0.00 | 1.44 | 0.56 | 92 | 1012.7 |
| 20260506161557 | 56 | 227 | 0.0 | 5.0 | 0.03 | 1.44 | 0.56 | 92 | 1012.5 |
| 20260506160122 | 56 | 246 | 0.0 | 5.0 | 0.08 | 1.44 | 0.56 | 93 | 1012.3 |
| 20260506154600 | 56 | 0 | 0.0 | 0.0 | 0.11 | 1.51 | 0.56 | 94 | 1012.3 |
| 20260506153054 | 56 | 280 | 3.0 | 6.0 | 0.12 | 1.50 | 0.55 | 93 | 1012.4 |
| 20260506151604 | 55 | 0 | 0.0 | 4.0 | 0.26 | 1.47 | 0.52 | 93 | 1012.1 |
| 20260506150103 | 56 | 0 | 0.0 | 3.0 | 0.44 | 1.42 | 0.48 | 92 | 1012.4 |
| 20260506144552 | 56 | 61 | 0.0 | 3.0 | 0.42 | 1.39 | 0.44 | 92 | 1012.4 |
| 20260506143056 | 56 | 327 | 2.0 | 8.0 | 0.40 | 1.37 | 0.43 | 90 | 1011.9 |
| 20260506141555 | 56 | 65 | 3.0 | 8.0 | 0.25 | 1.19 | 0.25 | 86 | 1012.2 |
| 20260506140055 | 58 | 44 | 5.0 | 12.0 | 0.03 | 0.98 | 0.03 | 83 | 1012.0 |
| 20260506134556 | 58 | 85 | 5.0 | 12.0 | 0.02 | 1.04 | 0.02 | 82 | 1011.9 |
| 20260506133107 | 59 | 125 | 2.0 | 9.0 | 0.02 | 1.04 | 0.02 | 83 | 1012.0 |
| 20260506131614 | 60 | 166 | 2.0 | 12.0 | 0.00 | 1.02 | 0.00 | 77 | 1012.0 |
| 20260506130108 | 62 | 124 | 2.0 | 6.0 | 0.00 | 1.02 | 0.00 | 73 | 1012.3 |
| 20260506124556 | 62 | 147 | 3.0 | 9.0 | 0.00 | 1.02 | 0.00 | 72 | 1012.0 |
| 20260506123059 | 63 | 171 | 5.0 | 11.0 | 0.00 | 1.02 | 0.00 | 69 | 1012.0 |
| 20260506121609 | 65 | 170 | 5.0 | 12.0 | 0.00 | 1.02 | 0.00 | 66 | 1011.8 |